,,,PA_Meas_PMT16A,,PR_Meas_QMR101_102,,RH_Meas_QMH101,,SR_Meas_QMS101,,TA_Meas_QMH101,,GenWind,,GenWind,
date,time,status,PA,status,PR,status,RH,status,SR,status,TA,status,DirAvg,status,SpdAvg,
2009-04-05, 00:00:05,VALID,1008.63,VALID,0,VALID,85.988,VALID,0,VALID,23.6356,VALID,359,VALID,0,
2009-04-05, 00:01:05,VALID,1008.61,VALID,0,VALID,85.988,VALID,0,VALID,23.6161,VALID,359,VALID,0,
2009-04-05, 00:02:05,VALID,1008.6,VALID,0,VALID,85.9956,VALID,0,VALID,23.6161,VALID,359,VALID,0,
2009-04-05, 00:03:05,VALID,1008.59,VALID,0,VALID,85.9956,VALID,0,VALID,23.5966,VALID,359,VALID,0,
2009-04-05, 00:04:05,VALID,1008.58,VALID,0,VALID,86.0033,VALID,0,VALID,23.5966,VALID,359,VALID,0,
2009-04-05, 00:05:05,VALID,1008.55,VALID,0,VALID,86.0109,VALID,0,VALID,23.5966,VALID,359,VALID,0,
2009-04-05, 00:06:05,VALID,1008.56,VALID,0,VALID,86.0033,VALID,0,VALID,23.5753,VALID,359,VALID,0,
2009-04-05, 00:07:05,VALID,1008.56,VALID,0,VALID,86.0033,VALID,0,VALID,23.5576,VALID,359,VALID,0,
2009-04-05, 00:08:05,VALID,1008.55,VALID,0,VALID,86.0033,VALID,0,VALID,23.5771,VALID,359,VALID,0,
2009-04-05, 00:09:05,VALID,1008.53,VALID,0,VALID,86.0185,VALID,0,VALID,23.5771,VALID,359,VALID,0,
2009-04-05, 00:10:05,VALID,1008.53,VALID,0,VALID,86.0185,VALID,0,VALID,23.5558,VALID,359,VALID,0,
2009-04-05, 00:11:05,VALID,1008.53,VALID,0,VALID,86.0338,VALID,0,VALID,23.5771,VALID,359,VALID,0,
2009-04-05, 00:12:05,VALID,1008.51,VALID,0,VALID,86.0109,VALID,0,VALID,23.5771,VALID,359,VALID,0,
2009-04-05, 00:13:05,VALID,1008.52,VALID,0,VALID,86.0414,VALID,0,VALID,23.5966,VALID,359,VALID,0,
2009-04-05, 00:14:05,VALID,1008.52,VALID,0,VALID,86.0261,VALID,0,VALID,23.5753,VALID,359,VALID,0,
2009-04-05, 00:15:05,VALID,1008.47,VALID,0,VALID,86.0109,VALID,0,VALID,23.5966,VALID,359,VALID,0,
2009-04-05, 00:16:05,VALID,1008.47,VALID,0,VALID,86.0338,VALID,0,VALID,23.5771,VALID,359,VALID,0,
2009-04-05, 00:17:05,VALID,1008.43,VALID,0,VALID,86.0109,VALID,0,VALID,23.5771,VALID,359,VALID,0,
2009-04-05, 00:18:05,VALID,1008.43,VALID,0,VALID,86.0261,VALID,0,VALID,23.5771,VALID,359,VALID,0,
2009-04-05, 00:19:05,VALID,1008.42,VALID,0,VALID,86.0643,VALID,0,VALID,23.5966,VALID,359,VALID,0,
2009-04-05, 00:20:05,VALID,1008.42,VALID,0,VALID,86.0795,VALID,0,VALID,23.5966,VALID,359,VALID,0,
2009-04-05, 00:21:05,VALID,1008.42,VALID,0,VALID,86.0643,VALID,0,VALID,23.6161,VALID,359,VALID,0,
2009-04-05, 00:22:05,VALID,1008.39,VALID,0,VALID,86.0566,VALID,0,VALID,23.5771,VALID,359,VALID,0,
2009-04-05, 00:23:05,VALID,1008.4,VALID,0,VALID,86.0719,VALID,0,VALID,23.5966,VALID,359,VALID,0,
2009-04-05, 00:24:05,VALID,1008.38,VALID,0,VALID,86.0719,VALID,0,VALID,23.5771,VALID,359,VALID,0,
2009-04-05, 00:25:05,VALID,1008.37,VALID,0,VALID,86.0719,VALID,0,VALID,23.5576,VALID,359,VALID,0,
2009-04-05, 00:26:05,VALID,1008.36,VALID,0,VALID,86.0719,VALID,0,VALID,23.5169,VALID,359,VALID,0,
2009-04-05, 00:27:05,VALID,1008.35,VALID,0,VALID,86.0871,VALID,0,VALID,23.5381,VALID,359,VALID,0,
2009-04-05, 00:28:05,VALID,1008.33,VALID,0,VALID,86.0643,VALID,0,VALID,23.5186,VALID,359,VALID,0,
2009-04-05, 00:29:05,VALID,1008.32,VALID,0,VALID,86.0338,VALID,0,VALID,23.5186,VALID,359,VALID,0,
2009-04-05, 00:30:05,VALID,1008.3,VALID,0,VALID,86.0185,VALID,0,VALID,23.5186,VALID,359,VALID,0,
2009-04-05, 00:31:05,VALID,1008.28,VALID,0,VALID,86.0566,VALID,0,VALID,23.5186,VALID,359,VALID,0,
2009-04-05, 00:32:05,VALID,1008.25,VALID,0,VALID,86.0566,VALID,0,VALID,23.5381,VALID,359,VALID,0,
2009-04-05, 00:33:05,VALID,1008.25,VALID,0,VALID,86.049,VALID,0,VALID,23.5381,VALID,359,VALID,0,
2009-04-05, 00:34:05,VALID,1008.2,VALID,0,VALID,86.0185,VALID,0,VALID,23.4992,VALID,359,VALID,0,
2009-04-05, 00:35:05,VALID,1008.17,VALID,0,VALID,86.0566,VALID,0,VALID,23.4797,VALID,359,VALID,0,
2009-04-05, 00:36:05,VALID,1008.15,VALID,0,VALID,86.0643,VALID,0,VALID,23.4407,VALID,359,VALID,0,
2009-04-05, 00:37:05,VALID,1008.11,VALID,0,VALID,86.0795,VALID,0,VALID,23.4602,VALID,359,VALID,0,
2009-04-05, 00:38:05,VALID,1008.11,VALID,0,VALID,86.0871,VALID,0,VALID,23.4194,VALID,359,VALID,0,
2009-04-05, 00:39:05,VALID,1008.09,VALID,0,VALID,86.0871,VALID,0,VALID,23.4194,VALID,359,VALID,0,
2009-04-05, 00:40:05,VALID,1008.08,VALID,0,VALID,86.0795,VALID,0,VALID,23.4212,VALID,359,VALID,0,
2009-04-05, 00:41:05,VALID,1008.1,VALID,0,VALID,86.0643,VALID,0,VALID,23.4212,VALID,359,VALID,0,
2009-04-05, 00:42:05,VALID,1008.1,VALID,0,VALID,86.0643,VALID,0,VALID,23.4212,VALID,359,VALID,0,
2009-04-05, 00:43:05,VALID,1008.11,VALID,0,VALID,86.0643,VALID,0,VALID,23.4212,VALID,359,VALID,0,
2009-04-05, 00:44:05,VALID,1008.09,VALID,0,VALID,86.0719,VALID,0,VALID,23.4407,VALID,359,VALID,0,
2009-04-05, 00:45:05,VALID,1008.06,VALID,0,VALID,86.0643,VALID,0,VALID,23.4389,VALID,359,VALID,0,
2009-04-05, 00:46:05,VALID,1008.07,VALID,0,VALID,86.049,VALID,0,VALID,23.4797,VALID,359,VALID,0,
2009-04-05, 00:47:05,VALID,1008.05,VALID,0,VALID,86.0795,VALID,0,VALID,23.4602,VALID,359,VALID,0,
2009-04-05, 00:48:05,VALID,1008.05,VALID,0,VALID,86.0795,VALID,0,VALID,23.4797,VALID,359,VALID,0,
2009-04-05, 00:49:05,VALID,1008.05,VALID,0,VALID,86.1405,VALID,0,VALID,23.4797,VALID,359,VALID,0,
2009-04-05, 00:50:05,VALID,1008.07,VALID,0,VALID,86.1405,VALID,0,VALID,23.4797,VALID,359,VALID,0,
2009-04-05, 00:51:05,VALID,1008.07,VALID,0,VALID,86.1329,VALID,0,VALID,23.4797,VALID,359,VALID,0,
2009-04-05, 00:52:05,VALID,1008.13,VALID,0,VALID,86.1558,VALID,0,VALID,23.4797,VALID,359,VALID,0,
2009-04-05, 00:53:05,VALID,1008.1,VALID,0,VALID,86.1786,VALID,0,VALID,23.4797,VALID,359,VALID,0,
2009-04-05, 00:54:05,VALID,1008.12,VALID,0,VALID,86.1558,VALID,0,VALID,23.4602,VALID,359,VALID,0,
2009-04-05, 00:55:05,VALID,1008.15,VALID,0,VALID,86.1786,VALID,0,VALID,23.4602,VALID,359,VALID,0,
2009-04-05, 00:56:05,VALID,1008.16,VALID,0,VALID,86.1786,VALID,0,VALID,23.4602,VALID,359,VALID,0,
2009-04-05, 00:57:05,VALID,1008.18,VALID,0,VALID,86.1558,VALID,0,VALID,23.4602,VALID,359,VALID,0,
2009-04-05, 00:58:05,VALID,1008.22,VALID,0,VALID,86.1786,VALID,0,VALID,23.4797,VALID,359,VALID,0,
2009-04-05, 00:59:05,VALID,1008.22,VALID,0,VALID,86.1863,VALID,0,VALID,23.4992,VALID,359,VALID,0,
2009-04-05, 01:00:05,VALID,1008.22,VALID,0,VALID,86.1786,VALID,0,VALID,23.4992,VALID,359,VALID,0,
2009-04-05, 01:01:05,VALID,1008.24,VALID,0,VALID,86.1786,VALID,0,VALID,23.4992,VALID,359,VALID,0,
2009-04-05, 01:02:05,VALID,1008.25,VALID,0,VALID,86.1863,VALID,0,VALID,23.4797,VALID,359,VALID,0,
2009-04-05, 01:03:05,VALID,1008.25,VALID,0,VALID,86.1939,VALID,0,VALID,23.4797,VALID,359,VALID,0,
2009-04-05, 01:04:05,VALID,1008.22,VALID,0,VALID,86.1939,VALID,0,VALID,23.4584,VALID,359,VALID,0,
2009-04-05, 01:05:05,VALID,1008.23,VALID,0,VALID,86.1863,VALID,0,VALID,23.4,VALID,359,VALID,0,
2009-04-05, 01:06:05,VALID,1008.19,VALID,0,VALID,86.1939,VALID,0,VALID,23.4017,VALID,359,VALID,0,
2009-04-05, 01:07:05,VALID,1008.18,VALID,0,VALID,86.1939,VALID,0,VALID,23.3628,VALID,359,VALID,0,
2009-04-05, 01:08:05,VALID,1008.2,VALID,0,VALID,86.2015,VALID,0,VALID,23.4017,VALID,359,VALID,0,
2009-04-05, 01:09:05,VALID,1008.16,VALID,0,VALID,86.2168,VALID,0,VALID,23.3823,VALID,359,VALID,0,
2009-04-05, 01:10:05,VALID,1008.14,VALID,0,VALID,86.2091,VALID,0,VALID,23.4017,VALID,359,VALID,0,
2009-04-05, 01:11:05,VALID,1008.14,VALID,0,VALID,86.1939,VALID,0,VALID,23.4212,VALID,359,VALID,0,
2009-04-05, 01:12:05,VALID,1008.1,VALID,0,VALID,86.2244,VALID,0,VALID,23.4407,VALID,359,VALID,0,
2009-04-05, 01:13:05,VALID,1008.11,VALID,0,VALID,86.2091,VALID,0,VALID,23.4602,VALID,359,VALID,0,
2009-04-05, 01:14:05,VALID,1008.12,VALID,0,VALID,86.1939,VALID,0,VALID,23.4602,VALID,359,VALID,0,
2009-04-05, 01:15:05,VALID,1008.07,VALID,0,VALID,86.1939,VALID,0,VALID,23.4797,VALID,359,VALID,0,
2009-04-05, 01:16:05,VALID,1008.07,VALID,0,VALID,86.1939,VALID,0,VALID,23.4797,VALID,359,VALID,0,
2009-04-05, 01:17:05,VALID,1008.08,VALID,0,VALID,86.2244,VALID,0,VALID,23.4797,VALID,359,VALID,0,
2009-04-05, 01:18:05,VALID,1008.06,VALID,0,VALID,86.2244,VALID,0,VALID,23.4584,VALID,359,VALID,0,
2009-04-05, 01:19:05,VALID,1008.02,VALID,0,VALID,86.2091,VALID,0,VALID,23.4389,VALID,359,VALID,0,
2009-04-05, 01:20:05,VALID,1008.02,VALID,0,VALID,86.232,VALID,0,VALID,23.4389,VALID,359,VALID,0,
2009-04-05, 01:21:05,VALID,1008.01,VALID,0,VALID,86.232,VALID,0,VALID,23.4602,VALID,359,VALID,0,
2009-04-05, 01:22:05,VALID,1008.05,VALID,0,VALID,86.232,VALID,0,VALID,23.4602,VALID,359,VALID,0,
2009-04-05, 01:23:05,VALID,1008.04,VALID,0,VALID,86.2168,VALID,0,VALID,23.4602,VALID,359,VALID,0,
2009-04-05, 01:24:05,VALID,1008.05,VALID,0,VALID,86.2396,VALID,0,VALID,23.4602,VALID,359,VALID,0,
2009-04-05, 01:25:05,VALID,1008.07,VALID,0,VALID,86.2396,VALID,0,VALID,23.4602,VALID,359,VALID,0,
2009-04-05, 01:26:05,VALID,1008.09,VALID,0,VALID,86.2473,VALID,0,VALID,23.4602,VALID,359,VALID,0,
2009-04-05, 01:27:05,VALID,1008.08,VALID,0,VALID,86.232,VALID,0,VALID,23.4389,VALID,359,VALID,0,
2009-04-05, 01:28:05,VALID,1008.09,VALID,0,VALID,86.2396,VALID,0,VALID,23.4797,VALID,359,VALID,0,
2009-04-05, 01:29:05,VALID,1008.14,VALID,0,VALID,86.2473,VALID,0,VALID,23.4779,VALID,359,VALID,0,
2009-04-05, 01:30:05,VALID,1008.14,VALID,0,VALID,86.232,VALID,0,VALID,23.5186,VALID,359,VALID,0,
2009-04-05, 01:31:05,VALID,1008.16,VALID,0,VALID,86.2473,VALID,0,VALID,23.5363,VALID,42,VALID,0,
2009-04-05, 01:32:05,VALID,1008.15,VALID,0,VALID,86.232,VALID,0,VALID,23.5576,VALID,42,VALID,0,
2009-04-05, 01:33:05,VALID,1008.14,VALID,0,VALID,86.2549,VALID,0,VALID,23.5576,VALID,42,VALID,0,
2009-04-05, 01:34:05,VALID,1008.16,VALID,0,VALID,86.2473,VALID,0,VALID,23.5576,VALID,42,VALID,0,
2009-04-05, 01:35:05,VALID,1008.12,VALID,0,VALID,86.2625,VALID,0,VALID,23.5771,VALID,42,VALID,0,
2009-04-05, 01:36:05,VALID,1008.14,VALID,0,VALID,86.2473,VALID,0,VALID,23.5771,VALID,42,VALID,0,
2009-04-05, 01:37:05,VALID,1008.13,VALID,0,VALID,86.2549,VALID,0,VALID,23.5966,VALID,42,VALID,0,
2009-04-05, 01:38:05,VALID,1008.11,VALID,0,VALID,86.2396,VALID,0,VALID,23.6161,VALID,42,VALID,0,
2009-04-05, 01:39:05,VALID,1008.11,VALID,0,VALID,86.2549,VALID,0,VALID,23.6161,VALID,42,VALID,0,
2009-04-05, 01:40:05,VALID,1008.1,VALID,0,VALID,86.2396,VALID,0,VALID,23.6161,VALID,42,VALID,0,
2009-04-05, 01:41:05,VALID,1008.09,VALID,0,VALID,86.2396,VALID,0,VALID,23.5948,VALID,42,VALID,0,
2009-04-05, 01:42:05,VALID,1008.08,VALID,0,VALID,86.2549,VALID,0,VALID,23.6161,VALID,42,VALID,0,
2009-04-05, 01:43:05,VALID,1008.06,VALID,0,VALID,86.2549,VALID,0,VALID,23.5948,VALID,42,VALID,0,
2009-04-05, 01:44:05,VALID,1008.06,VALID,0,VALID,86.2549,VALID,0,VALID,23.6356,VALID,42,VALID,0,
2009-04-05, 01:45:05,VALID,1008.04,VALID,0,VALID,86.2473,VALID,0,VALID,23.6356,VALID,42,VALID,0,
2009-04-05, 01:46:05,VALID,1008.03,VALID,0,VALID,86.2701,VALID,0,VALID,23.6356,VALID,42,VALID,0,
2009-04-05, 01:47:05,VALID,1008.02,VALID,0,VALID,86.2625,VALID,0,VALID,23.6356,VALID,42,VALID,0,
2009-04-05, 01:48:05,VALID,1008,VALID,0,VALID,86.2473,VALID,0,VALID,23.655,VALID,42,VALID,0,
2009-04-05, 01:49:05,VALID,1008.01,VALID,0,VALID,86.2473,VALID,0,VALID,23.6356,VALID,42,VALID,0,
2009-04-05, 01:50:05,VALID,1007.99,VALID,0,VALID,86.2549,VALID,0,VALID,23.6745,VALID,42,VALID,0,
2009-04-05, 01:51:05,VALID,1007.98,VALID,0,VALID,86.2244,VALID,0,VALID,23.6745,VALID,42,VALID,0,
2009-04-05, 01:52:05,VALID,1007.96,VALID,0,VALID,86.2778,VALID,0,VALID,23.694,VALID,42,VALID,0,
2009-04-05, 01:53:05,VALID,1007.95,VALID,0,VALID,86.2625,VALID,0,VALID,23.7135,VALID,42,VALID,0,
2009-04-05, 01:54:05,VALID,1007.95,VALID,0,VALID,86.2854,VALID,0,VALID,23.733,VALID,42,VALID,0,
2009-04-05, 01:55:05,VALID,1007.92,VALID,0,VALID,86.2778,VALID,0,VALID,23.733,VALID,42,VALID,0,
2009-04-05, 01:56:05,VALID,1007.92,VALID,0,VALID,86.2701,VALID,0,VALID,23.733,VALID,42,VALID,0,
2009-04-05, 01:57:05,VALID,1007.89,VALID,0,VALID,86.2854,VALID,0,VALID,23.733,VALID,42,VALID,0,
2009-04-05, 01:58:05,VALID,1007.88,VALID,0,VALID,86.2854,VALID,0,VALID,23.7135,VALID,42,VALID,0,
2009-04-05, 01:59:05,VALID,1007.9,VALID,0,VALID,86.2854,VALID,0,VALID,23.694,VALID,42,VALID,0,
2009-04-05, 02:00:05,VALID,1007.93,VALID,0,VALID,86.2625,VALID,0,VALID,23.694,VALID,42,VALID,0,
2009-04-05, 02:01:05,VALID,1007.9,VALID,0,VALID,86.2778,VALID,0,VALID,23.6745,VALID,42,VALID,0,
2009-04-05, 02:02:05,VALID,1007.92,VALID,0,VALID,86.2854,VALID,0,VALID,23.6745,VALID,42,VALID,0,
2009-04-05, 02:03:05,VALID,1007.93,VALID,0,VALID,86.293,VALID,0,VALID,23.6745,VALID,42,VALID,0,
2009-04-05, 02:04:05,VALID,1007.9,VALID,0,VALID,86.2778,VALID,0,VALID,23.6763,VALID,42,VALID,0,
2009-04-05, 02:05:05,VALID,1007.89,VALID,0,VALID,86.3159,VALID,0,VALID,23.655,VALID,42,VALID,0,
2009-04-05, 02:06:05,VALID,1007.87,VALID,0,VALID,86.2854,VALID,0,VALID,23.655,VALID,42,VALID,0,
2009-04-05, 02:07:05,VALID,1007.93,VALID,0,VALID,86.2854,VALID,0,VALID,23.655,VALID,42,VALID,0,
2009-04-05, 02:08:05,VALID,1007.9,VALID,0,VALID,86.3007,VALID,0,VALID,23.6356,VALID,42,VALID,0,
2009-04-05, 02:09:05,VALID,1007.93,VALID,0,VALID,86.2854,VALID,0,VALID,23.655,VALID,42,VALID,0,
2009-04-05, 02:10:05,VALID,1007.92,VALID,0,VALID,86.2854,VALID,0,VALID,23.655,VALID,42,VALID,0,
2009-04-05, 02:11:05,VALID,1007.9,VALID,0,VALID,86.2854,VALID,0,VALID,23.6338,VALID,42,VALID,0,
2009-04-05, 02:12:05,VALID,1007.93,VALID,0,VALID,86.2854,VALID,0,VALID,23.655,VALID,42,VALID,0,
2009-04-05, 02:13:05,VALID,1007.91,VALID,0,VALID,86.3083,VALID,0,VALID,23.6958,VALID,42,VALID,0,
2009-04-05, 02:14:05,VALID,1007.91,VALID,0,VALID,86.3083,VALID,0.105969,VALID,23.6727,VALID,42,VALID,0,
2009-04-05, 02:15:05,VALID,1007.92,VALID,0,VALID,86.3083,VALID,0,VALID,23.6338,VALID,42,VALID,0,
2009-04-05, 02:16:05,VALID,1007.88,VALID,0,VALID,86.3007,VALID,0.105969,VALID,23.6532,VALID,42,VALID,0,
2009-04-05, 02:17:05,VALID,1007.87,VALID,0,VALID,86.3083,VALID,0,VALID,23.6338,VALID,42,VALID,0,
2009-04-05, 02:18:05,VALID,1007.86,VALID,0,VALID,86.3007,VALID,0.105969,VALID,23.6532,VALID,42,VALID,0,
2009-04-05, 02:19:04,VALID,1007.85,VALID,0,VALID,86.3159,VALID,0,VALID,23.6338,VALID,42,VALID,0,
2009-04-05, 02:20:04,VALID,1007.86,VALID,0,VALID,86.3007,VALID,0,VALID,23.6338,VALID,42,VALID,0,
2009-04-05, 02:21:04,VALID,1007.84,VALID,0,VALID,86.3083,VALID,0.105969,VALID,23.6143,VALID,42,VALID,0,
2009-04-05, 02:22:04,VALID,1007.82,VALID,0,VALID,86.293,VALID,0.105969,VALID,23.6143,VALID,42,VALID,0,
2009-04-05, 02:23:04,VALID,1007.84,VALID,0,VALID,86.3083,VALID,0.105969,VALID,23.6143,VALID,42,VALID,0,
2009-04-05, 02:24:04,VALID,1007.8,VALID,0,VALID,86.3083,VALID,0.105969,VALID,23.6143,VALID,42,VALID,0,
2009-04-05, 02:25:04,VALID,1007.8,VALID,0,VALID,86.3007,VALID,0,VALID,23.5948,VALID,42,VALID,0,
2009-04-05, 02:26:04,VALID,1007.81,VALID,0,VALID,86.293,VALID,0,VALID,23.6143,VALID,42,VALID,0,
2009-04-05, 02:27:04,VALID,1007.82,VALID,0,VALID,86.3083,VALID,0,VALID,23.6161,VALID,42,VALID,0,
2009-04-05, 02:28:04,VALID,1007.8,VALID,0,VALID,86.3083,VALID,0,VALID,23.5753,VALID,42,VALID,0,
2009-04-05, 02:29:04,VALID,1007.81,VALID,0,VALID,86.3312,VALID,0.105969,VALID,23.5753,VALID,42,VALID,0,
2009-04-05, 02:30:04,VALID,1007.79,VALID,0,VALID,86.3083,VALID,0,VALID,23.5558,VALID,42,VALID,0,
2009-04-05, 02:31:04,VALID,1007.77,VALID,0,VALID,86.3388,VALID,0.105969,VALID,23.5363,VALID,42,VALID,0,
2009-04-05, 02:32:04,VALID,1007.79,VALID,0,VALID,86.3312,VALID,0.105969,VALID,23.5576,VALID,42,VALID,0,
2009-04-05, 02:33:04,VALID,1007.76,VALID,0,VALID,86.3235,VALID,0,VALID,23.5558,VALID,42,VALID,0,
2009-04-05, 02:34:04,VALID,1007.76,VALID,0,VALID,86.354,VALID,0.105969,VALID,23.5558,VALID,42,VALID,0,
2009-04-05, 02:35:04,VALID,1007.77,VALID,0,VALID,86.3312,VALID,0.105969,VALID,23.5363,VALID,42,VALID,0,
2009-04-05, 02:36:04,VALID,1007.75,VALID,0,VALID,86.3235,VALID,0.105969,VALID,23.5169,VALID,42,VALID,0,
2009-04-05, 02:37:04,VALID,1007.74,VALID,0,VALID,86.3312,VALID,0,VALID,23.4974,VALID,42,VALID,0,
2009-04-05, 02:38:04,VALID,1007.75,VALID,0,VALID,86.3464,VALID,0.105969,VALID,23.4974,VALID,42,VALID,0,
2009-04-05, 02:39:04,VALID,1007.76,VALID,0,VALID,86.3388,VALID,0.105969,VALID,23.4779,VALID,42,VALID,0,
2009-04-05, 02:40:04,VALID,1007.76,VALID,0,VALID,86.3312,VALID,0.105969,VALID,23.4779,VALID,42,VALID,0,
2009-04-05, 02:41:04,VALID,1007.76,VALID,0,VALID,86.3312,VALID,0.105969,VALID,23.4779,VALID,42,VALID,0,
2009-04-05, 02:42:04,VALID,1007.76,VALID,0,VALID,86.3312,VALID,0.105969,VALID,23.4992,VALID,42,VALID,0,
2009-04-05, 02:43:04,VALID,1007.78,VALID,0,VALID,86.3312,VALID,0.105969,VALID,23.4584,VALID,42,VALID,0,
2009-04-05, 02:44:04,VALID,1007.78,VALID,0,VALID,86.3235,VALID,0,VALID,23.4407,VALID,42,VALID,0,
2009-04-05, 02:45:04,VALID,1007.8,VALID,0,VALID,86.3617,VALID,0,VALID,23.462,VALID,32,VALID,0,
2009-04-05, 02:46:04,VALID,1007.8,VALID,0,VALID,86.3617,VALID,0,VALID,23.4815,VALID,38,VALID,0.492188,
2009-04-05, 02:47:04,VALID,1007.78,VALID,0,VALID,86.3617,VALID,0,VALID,23.4407,VALID,38,VALID,0.00351562,
2009-04-05, 02:48:04,VALID,1007.8,VALID,0,VALID,86.3464,VALID,0,VALID,23.4407,VALID,38,VALID,0,
2009-04-05, 02:49:04,VALID,1007.78,VALID,0,VALID,86.3693,VALID,0,VALID,23.4407,VALID,38,VALID,0.344531,
2009-04-05, 02:50:04,VALID,1007.79,VALID,0,VALID,86.3693,VALID,0,VALID,23.4212,VALID,38,VALID,0.0304688,
2009-04-05, 02:51:04,VALID,1007.79,VALID,0,VALID,86.3769,VALID,0,VALID,23.4212,VALID,38,VALID,0.233594,
2009-04-05, 02:52:04,VALID,1007.8,VALID,0,VALID,86.3693,VALID,0,VALID,23.4212,VALID,38,VALID,0.321484,
2009-04-05, 02:53:04,VALID,1007.77,VALID,0,VALID,86.3998,VALID,0,VALID,23.4017,VALID,37,VALID,0.174219,
2009-04-05, 02:54:04,VALID,1007.76,VALID,0,VALID,86.3845,VALID,0,VALID,23.4017,VALID,37,VALID,0,
2009-04-05, 02:55:04,VALID,1007.77,VALID,0,VALID,86.3769,VALID,0,VALID,23.4017,VALID,37,VALID,0.25625,
2009-04-05, 02:56:04,VALID,1007.75,VALID,0,VALID,86.3845,VALID,0,VALID,23.4017,VALID,35,VALID,0.265625,
2009-04-05, 02:57:04,VALID,1007.76,VALID,0,VALID,86.3998,VALID,0,VALID,23.3823,VALID,35,VALID,0.196875,
2009-04-05, 02:58:04,VALID,1007.76,VALID,0,VALID,86.3922,VALID,0,VALID,23.3823,VALID,35,VALID,0.241797,
2009-04-05, 02:59:04,VALID,1007.75,VALID,0,VALID,86.3845,VALID,0,VALID,23.3823,VALID,35,VALID,0.0382813,
2009-04-05, 03:00:04,VALID,1007.76,VALID,0,VALID,86.415,VALID,0,VALID,23.3823,VALID,35,VALID,0,
2009-04-05, 03:01:04,VALID,1007.76,VALID,0,VALID,86.4074,VALID,0,VALID,23.3628,VALID,35,VALID,0.123438,
2009-04-05, 03:02:04,VALID,1007.78,VALID,0,VALID,86.4074,VALID,0,VALID,23.3433,VALID,35,VALID,0,
2009-04-05, 03:03:04,VALID,1007.77,VALID,0,VALID,86.4074,VALID,0,VALID,23.322,VALID,35,VALID,0,
2009-04-05, 03:04:04,VALID,1007.8,VALID,0,VALID,86.4227,VALID,0,VALID,23.3238,VALID,35,VALID,0.090625,
2009-04-05, 03:05:04,VALID,1007.81,VALID,0,VALID,86.4074,VALID,0,VALID,23.3433,VALID,35,VALID,0.250391,
2009-04-05, 03:06:04,VALID,1007.83,VALID,0,VALID,86.3922,VALID,0,VALID,23.3451,VALID,35,VALID,0.179688,
2009-04-05, 03:07:04,VALID,1007.85,VALID,0,VALID,86.354,VALID,0,VALID,23.3451,VALID,35,VALID,0,
2009-04-05, 03:08:04,VALID,1007.87,VALID,0,VALID,86.3693,VALID,0,VALID,23.3433,VALID,35,VALID,0.028125,
2009-04-05, 03:09:04,VALID,1007.91,VALID,0,VALID,86.3769,VALID,0,VALID,23.3238,VALID,35,VALID,0,
2009-04-05, 03:10:04,VALID,1007.92,VALID,0,VALID,86.3922,VALID,0,VALID,23.3043,VALID,35,VALID,0,
2009-04-05, 03:11:04,VALID,1007.94,VALID,0,VALID,86.3617,VALID,0,VALID,23.3043,VALID,35,VALID,0,
2009-04-05, 03:12:04,VALID,1007.97,VALID,0,VALID,86.3693,VALID,0,VALID,23.3043,VALID,35,VALID,0,
2009-04-05, 03:13:04,VALID,1007.97,VALID,0,VALID,86.3845,VALID,0,VALID,23.3238,VALID,35,VALID,0,
2009-04-05, 03:14:04,VALID,1008.01,VALID,0,VALID,86.4227,VALID,0.105969,VALID,23.3026,VALID,64,VALID,0.191406,
2009-04-05, 03:15:04,VALID,1008.02,VALID,0,VALID,86.4074,VALID,0.105969,VALID,23.3238,VALID,64,VALID,0.0414063,
2009-04-05, 03:16:04,VALID,1008.02,VALID,0,VALID,86.4227,VALID,0.105969,VALID,23.3026,VALID,64,VALID,0,
2009-04-05, 03:17:04,VALID,1007.99,VALID,0,VALID,86.3998,VALID,0,VALID,23.322,VALID,64,VALID,0,
2009-04-05, 03:18:04,VALID,1008.03,VALID,0,VALID,86.3998,VALID,0.105969,VALID,23.322,VALID,64,VALID,0,
2009-04-05, 03:19:04,VALID,1008.04,VALID,0,VALID,86.4608,VALID,0,VALID,23.3238,VALID,64,VALID,0,
2009-04-05, 03:20:04,VALID,1008.03,VALID,0,VALID,86.4608,VALID,0,VALID,23.3026,VALID,64,VALID,0,
2009-04-05, 03:21:04,VALID,1008.02,VALID,0,VALID,86.4684,VALID,0.105969,VALID,23.2831,VALID,64,VALID,0,
2009-04-05, 03:22:04,VALID,1008.06,VALID,0,VALID,86.4608,VALID,0,VALID,23.3026,VALID,64,VALID,0,
2009-04-05, 03:23:04,VALID,1008.06,VALID,0,VALID,86.4608,VALID,0.105969,VALID,23.3026,VALID,56,VALID,0,
2009-04-05, 03:24:04,VALID,1008.08,VALID,0,VALID,86.476,VALID,0.105969,VALID,23.3026,VALID,56,VALID,0,
2009-04-05, 03:25:04,VALID,1008.09,VALID,0,VALID,86.4913,VALID,0.105969,VALID,23.2831,VALID,56,VALID,0,
2009-04-05, 03:26:04,VALID,1008.11,VALID,0,VALID,86.476,VALID,0.105969,VALID,23.3026,VALID,56,VALID,0,
2009-04-05, 03:27:04,VALID,1008.11,VALID,0,VALID,86.4913,VALID,0.105969,VALID,23.322,VALID,56,VALID,0,
2009-04-05, 03:28:04,VALID,1008.13,VALID,0,VALID,86.4837,VALID,0.105969,VALID,23.322,VALID,56,VALID,0,
2009-04-05, 03:29:04,VALID,1008.11,VALID,0,VALID,86.4989,VALID,0,VALID,23.3238,VALID,56,VALID,0,
2009-04-05, 03:30:04,VALID,1008.11,VALID,0,VALID,86.4989,VALID,0,VALID,23.3043,VALID,56,VALID,0,
2009-04-05, 03:31:04,VALID,1008.1,VALID,0,VALID,86.4989,VALID,0,VALID,23.3043,VALID,52,VALID,0,
2009-04-05, 03:32:04,VALID,1008.11,VALID,0,VALID,86.5142,VALID,0,VALID,23.3238,VALID,45,VALID,0,
2009-04-05, 03:33:04,VALID,1008.14,VALID,0,VALID,86.4913,VALID,0,VALID,23.3238,VALID,45,VALID,0,
2009-04-05, 03:34:04,VALID,1008.13,VALID,0,VALID,86.5065,VALID,0,VALID,23.3238,VALID,45,VALID,0,
2009-04-05, 03:35:04,VALID,1008.11,VALID,0,VALID,86.5294,VALID,0,VALID,23.3026,VALID,45,VALID,0,
2009-04-05, 03:36:04,VALID,1008.14,VALID,0,VALID,86.4913,VALID,0,VALID,23.3238,VALID,45,VALID,0,
2009-04-05, 03:37:04,VALID,1008.14,VALID,0,VALID,86.5142,VALID,0,VALID,23.3238,VALID,45,VALID,0,
2009-04-05, 03:38:04,VALID,1008.12,VALID,0,VALID,86.5218,VALID,0,VALID,23.3043,VALID,45,VALID,0,
2009-04-05, 03:39:04,VALID,1008.13,VALID,0,VALID,86.5218,VALID,0,VALID,23.3043,VALID,45,VALID,0,
2009-04-05, 03:40:04,VALID,1008.13,VALID,0,VALID,86.5142,VALID,0,VALID,23.3043,VALID,45,VALID,0,
2009-04-05, 03:41:04,VALID,1008.14,VALID,0,VALID,86.5218,VALID,0,VALID,23.3238,VALID,45,VALID,0,
2009-04-05, 03:42:04,VALID,1008.12,VALID,0,VALID,86.5218,VALID,0,VALID,23.3043,VALID,45,VALID,0,
2009-04-05, 03:43:04,VALID,1008.09,VALID,0,VALID,86.5294,VALID,0,VALID,23.3043,VALID,45,VALID,0,
2009-04-05, 03:44:04,VALID,1008.08,VALID,0,VALID,86.5294,VALID,0,VALID,23.2848,VALID,45,VALID,0,
2009-04-05, 03:45:04,VALID,1008.1,VALID,0,VALID,86.5447,VALID,0,VALID,23.2848,VALID,45,VALID,0,
2009-04-05, 03:46:04,VALID,1008.1,VALID,0,VALID,86.5294,VALID,0,VALID,23.2848,VALID,45,VALID,0,
2009-04-05, 03:47:04,VALID,1008.1,VALID,0,VALID,86.5447,VALID,0,VALID,23.2848,VALID,45,VALID,0,
2009-04-05, 03:48:04,VALID,1008.09,VALID,0,VALID,86.5218,VALID,0,VALID,23.2848,VALID,45,VALID,0,
2009-04-05, 03:49:04,VALID,1008.09,VALID,0,VALID,86.5447,VALID,0,VALID,23.3043,VALID,45,VALID,0,
2009-04-05, 03:50:04,VALID,1008.08,VALID,0,VALID,86.5447,VALID,0,VALID,23.3238,VALID,45,VALID,0,
2009-04-05, 03:51:04,VALID,1008.08,VALID,0,VALID,86.5447,VALID,0,VALID,23.3238,VALID,45,VALID,0,
2009-04-05, 03:52:04,VALID,1008.05,VALID,0,VALID,86.5447,VALID,0,VALID,23.3238,VALID,45,VALID,0,
2009-04-05, 03:53:04,VALID,1008.05,VALID,0,VALID,86.5676,VALID,0,VALID,23.3433,VALID,45,VALID,0,
2009-04-05, 03:54:04,VALID,1008.01,VALID,0,VALID,86.537,VALID,0,VALID,23.3433,VALID,43,VALID,0,
2009-04-05, 03:55:04,VALID,1008,VALID,0,VALID,86.5523,VALID,0,VALID,23.3628,VALID,43,VALID,0,
2009-04-05, 03:56:04,VALID,1007.95,VALID,0,VALID,86.5447,VALID,0,VALID,23.3433,VALID,33,VALID,0,
2009-04-05, 03:57:04,VALID,1007.94,VALID,0,VALID,86.537,VALID,0,VALID,23.3433,VALID,33,VALID,0,
2009-04-05, 03:58:04,VALID,1007.94,VALID,0,VALID,86.5523,VALID,0,VALID,23.3628,VALID,33,VALID,0,